Weather History for Roxboro, NC

Change the Weather History Date:

Saturday, May 18, 2013

  Actual Average Record
Temperature  
Mean Temperature 66 °F -  
Max Temperature 71 °F 78 °F 90 °F (1962)
Min Temperature 60 °F 52 °F 39 °F (1973)
Growing Degree Days 16 (Base 50)    
Moisture  
Dew Point 63 °F    
Average Humidity 90    
Maximum Humidity 100    
Minimum Humidity 78    
Precipitation  
Precipitation 0.36 in - - ()
Sea Level Pressure  
Sea Level Pressure 30.16 in    
Wind  
Wind Speed 4 mph (ENE)    
Max Wind Speed 8 mph    
Max Gust Speed -    
Visibility 9 miles    
Events Rain , Thunderstorm    
Averages and records for this station are not official NWS values.
T = Trace of Precipitation, MM = Missing Value Source: NWS Daily Summary

Daily Weather History Graph

Daily Weather History Graph

Search for Another Location

Airport:

Trip Planner

Search our weather history database for the weather conditions in past years. The results will help you decide how hot, cold, wet, or windy it might be!

Date:

Astronomy

May. 18, 2013 Rise Set
Actual Time 6:07 AM EDT 8:18 PM EDT
Civil Twilight 5:38 AM EDT 8:47 PM EDT
Nautical Twilight 5:02 AM EDT 9:22 PM EDT
Astronomical Twilight 4:24 AM EDT 10:01 PM EDT
Moon 1:31 PM EDT (5/18) 1:46 AM EDT (5/18)
Length of Visible Light 15h 08m
Length of Day
14h 11m
First Quarter, 55% of the Moon is Illuminated
May 18
First Quarter
May 25
Full
May 31
Last Quarter
Jun 8
New
Jun 16
First Quarter

Hourly Weather History & Observations

Time (EDT) Temp. Dew Point Humidity Pressure Visibility Wind Dir Wind Speed Gust Speed Precip Events Conditions
12:15 AM 69.8 °F 62.6 °F 78% 30.12 in 10.0 mi East 5.8 mph - N/A   Mostly Cloudy
12:35 AM 69.8 °F 62.6 °F 78% 30.12 in 10.0 mi East 4.6 mph - N/A Thunderstorm Scattered Clouds
12:55 AM 69.8 °F 62.6 °F 78% 30.13 in 10.0 mi ENE 6.9 mph - N/A   Scattered Clouds
1:15 AM 69.8 °F 62.6 °F 78% 30.13 in 10.0 mi NE 8.1 mph - N/A   Scattered Clouds
1:35 AM 68.0 °F 62.6 °F 83% 30.13 in 10.0 mi NE 8.1 mph - N/A   Clear
1:55 AM 66.2 °F 62.6 °F 88% 30.12 in 10.0 mi ENE 6.9 mph - N/A   Clear
2:15 AM 64.4 °F 60.8 °F 88% 30.12 in 10.0 mi ENE 6.9 mph - N/A   Clear
2:35 AM 64.4 °F 60.8 °F 88% 30.10 in 10.0 mi ENE 5.8 mph - N/A   Clear
2:55 AM 62.6 °F 60.8 °F 94% 30.10 in 10.0 mi ENE 3.5 mph - N/A   Clear
3:15 AM 62.6 °F 60.8 °F 94% 30.10 in 10.0 mi Calm Calm - N/A   Clear
3:35 AM 62.6 °F 60.8 °F 94% 30.10 in 10.0 mi Calm Calm - N/A   Clear
3:55 AM 62.6 °F 60.8 °F 94% 30.12 in 10.0 mi Calm Calm - N/A   Clear
4:15 AM 62.6 °F 60.8 °F 94% 30.12 in 10.0 mi Calm Calm - N/A   Clear
4:35 AM 60.8 °F 60.8 °F 100% 30.13 in 10.0 mi NE 3.5 mph - N/A   Clear
4:55 AM 60.8 °F 60.8 °F 100% 30.13 in 10.0 mi Calm Calm - N/A   Clear
5:15 AM 60.8 °F 60.8 °F 100% 30.13 in 10.0 mi NE 5.8 mph - N/A   Clear
5:35 AM 60.8 °F 59.0 °F 94% 30.14 in 10.0 mi NE 5.8 mph - N/A   Clear
5:55 AM 60.8 °F 59.0 °F 94% 30.14 in 10.0 mi ENE 4.6 mph - N/A   Clear
6:15 AM 60.8 °F 59.0 °F 94% 30.14 in 10.0 mi ENE 5.8 mph - N/A   Clear
6:35 AM 60.8 °F 57.2 °F 88% 30.15 in 10.0 mi ENE 5.8 mph - N/A   Clear
6:55 AM 60.8 °F 57.2 °F 88% 30.16 in 10.0 mi East 4.6 mph - N/A   Clear
7:15 AM 60.8 °F 59.0 °F 94% 30.16 in 10.0 mi East 5.8 mph - N/A   Scattered Clouds
7:35 AM 62.6 °F 59.0 °F 88% 30.17 in 10.0 mi East 4.6 mph - N/A   Scattered Clouds
7:55 AM 62.6 °F 59.0 °F 88% 30.17 in 10.0 mi East 4.6 mph - N/A   Scattered Clouds
8:15 AM 62.6 °F 59.0 °F 88% 30.17 in 10.0 mi East 4.6 mph - N/A   Mostly Cloudy
8:35 AM 64.4 °F 60.8 °F 88% 30.17 in 10.0 mi ENE 5.8 mph - N/A   Mostly Cloudy
8:55 AM 64.4 °F 60.8 °F 88% 30.18 in 10.0 mi East 3.5 mph - N/A   Mostly Cloudy
9:15 AM 64.4 °F 60.8 °F 88% 30.19 in 10.0 mi Calm Calm - N/A   Scattered Clouds
9:35 AM 66.2 °F 60.8 °F 83% 30.19 in 10.0 mi Calm Calm - N/A   Scattered Clouds
9:55 AM 68.0 °F 62.6 °F 83% 30.19 in 10.0 mi Calm Calm - N/A   Mostly Cloudy
10:15 AM 68.0 °F 62.6 °F 83% 30.18 in 10.0 mi ENE 4.6 mph - N/A   Mostly Cloudy
10:35 AM 68.0 °F 62.6 °F 83% 30.18 in 10.0 mi ENE 5.8 mph - N/A   Mostly Cloudy
10:55 AM 69.8 °F 62.6 °F 78% 30.18 in 10.0 mi NNE 3.5 mph - N/A   Overcast
11:15 AM 69.8 °F 62.6 °F 78% 30.18 in 10.0 mi ENE 4.6 mph - N/A   Mostly Cloudy
11:35 AM 69.8 °F 62.6 °F 78% 30.19 in 10.0 mi East 4.6 mph - N/A   Mostly Cloudy
12:15 PM 69.8 °F 62.6 °F 78% 30.18 in 10.0 mi ENE 4.6 mph - N/A   Overcast
12:35 PM 71.6 °F 64.4 °F 78% 30.19 in 10.0 mi SE 3.5 mph - N/A   Overcast
12:55 PM 69.8 °F 66.2 °F 88% 30.19 in 10.0 mi Calm Calm - N/A   Overcast
1:15 PM 69.8 °F 66.2 °F 88% 30.19 in 10.0 mi Calm Calm - N/A Thunderstorm Overcast
1:35 PM 68.0 °F 66.2 °F 94% 30.19 in 1.2 mi NNW 3.5 mph - 0.10 in Rain , Thunderstorm Heavy Thunderstorms and Rain
1:55 PM 68.0 °F 68.0 °F 100% 30.17 in 3.0 mi Calm Calm - 0.12 in Rain , Thunderstorm Rain
2:15 PM 68.0 °F 68.0 °F 100% 30.17 in 7.0 mi North 4.6 mph - N/A Rain Light Rain
2:35 PM 68.0 °F 68.0 °F 100% 30.17 in 10.0 mi North 3.5 mph - N/A   Scattered Clouds
2:55 PM 69.8 °F 68.0 °F 94% 30.16 in 10.0 mi Calm Calm - N/A   Mostly Cloudy
3:15 PM 71.6 °F 64.4 °F 78% 30.16 in 10.0 mi NE 3.5 mph - N/A   Scattered Clouds
3:35 PM 71.6 °F 68.0 °F 88% 30.15 in 10.0 mi ENE 3.5 mph - N/A   Scattered Clouds
3:55 PM 71.6 °F 68.0 °F 88% 30.15 in 10.0 mi East 3.5 mph - N/A   Mostly Cloudy
4:15 PM 71.6 °F 64.4 °F 78% 30.15 in 10.0 mi ENE 4.6 mph - N/A   Scattered Clouds
4:35 PM 71.6 °F 66.2 °F 83% 30.15 in 10.0 mi NE 4.6 mph - N/A   Clear
4:55 PM 71.6 °F 66.2 °F 83% 30.14 in 10.0 mi NE 4.6 mph - N/A   Scattered Clouds
5:35 PM 71.6 °F 64.4 °F 78% 30.14 in 10.0 mi NNE 3.5 mph - N/A   Scattered Clouds
6:35 PM 71.6 °F 68.0 °F 88% 30.13 in 10.0 mi East 3.5 mph - N/A Rain Light Rain
6:55 PM 71.6 °F 66.2 °F 83% 30.14 in 10.0 mi ENE 4.6 mph - N/A   Mostly Cloudy
7:15 PM 69.8 °F 66.2 °F 88% 30.14 in 10.0 mi ENE 4.6 mph - N/A   Overcast
7:35 PM 69.8 °F 68.0 °F 94% 30.15 in 10.0 mi ENE 4.6 mph - N/A Rain Rain
7:55 PM 69.8 °F 68.0 °F 94% 30.15 in 10.0 mi East 4.6 mph - N/A   Drizzle
8:15 PM 68.0 °F 68.0 °F 100% 30.16 in 10.0 mi East 4.6 mph - N/A   Drizzle
8:35 PM 68.0 °F 68.0 °F 100% 30.16 in 10.0 mi East 4.6 mph - N/A   Light Drizzle
8:55 PM 68.0 °F 68.0 °F 100% 30.16 in 7.0 mi East 8.1 mph - 0.02 in Rain Rain
9:15 PM 68.0 °F 68.0 °F 100% 30.17 in 7.0 mi East 8.1 mph - N/A Rain Rain
9:35 PM 68.0 °F 68.0 °F 100% 30.17 in 10.0 mi Calm Calm - N/A   Overcast
10:15 PM 62.6 °F 62.6 °F 100% 30.19 in 5.0 mi SE 5.8 mph - 0.06 in Rain Rain
10:35 PM 62.6 °F 62.6 °F 100% 30.19 in 10.0 mi ESE 4.6 mph - 0.07 in Rain Heavy Rain
10:55 PM 62.6 °F 62.6 °F 100% 30.19 in 10.0 mi ESE 5.8 mph - 0.09 in Rain Rain
11:15 PM 62.6 °F 62.6 °F 100% 30.18 in 7.0 mi ESE 3.5 mph - 0.04 in Rain Rain
11:35 PM 62.6 °F 62.6 °F 100% 30.18 in 7.0 mi East 3.5 mph - 0.09 in Rain Rain
11:36 PM 62.6 °F 62.6 °F 100% 30.18 in 7.0 mi ENE 3.5 mph - 0.09 in Rain Rain
11:55 PM 62.6 °F 62.6 °F 100% 30.18 in 7.0 mi Calm Calm - 0.13 in Rain Rain